| time (UTC) | temp F | wind direction | speed MPH | gust MPH | rain 1hr in | rain 24hr in | rain mn in | humidity % | barometer mb |
| 20260504174235 | 75 | 293 | 2.0 | 9.0 | 0.00 | 0.00 | 0.00 | 40 | 1005.0 |
| 20260504173735 | 74 | 134 | 2.0 | 9.0 | 0.00 | 0.00 | 0.00 | 40 | 1005.1 |
| 20260504173236 | 74 | 173 | 2.0 | 9.0 | 0.00 | 0.00 | 0.00 | 36 | 1005.2 |
| 20260504172734 | 73 | 175 | 3.0 | 8.0 | 0.00 | 0.00 | 0.00 | 36 | 1005.3 |
| 20260504172454 | 73 | 222 | 3.0 | 10.0 | 0.00 | 0.00 | 0.00 | 34 | 1005.4 |
| 20260504171735 | 74 | 304 | 2.0 | 10.0 | 0.00 | 0.00 | 0.00 | 36 | 1005.3 |
| 20260504171457 | 73 | 252 | 1.0 | 5.0 | 0.00 | 0.00 | 0.00 | 37 | 1005.4 |
| 20260504170734 | 73 | 94 | 2.0 | 6.0 | 0.00 | 0.00 | 0.00 | 35 | 1005.4 |
| 20260504170454 | 73 | 6 | 1.0 | 6.0 | 0.00 | 0.00 | 0.00 | 35 | 1005.4 |
| 20260504160225 | 70 | 237 | 2.0 | 9.0 | 0.00 | 0.00 | 0.00 | 36 | 1006.3 |
| 20260504150721 | 67 | 69 | 1.0 | 5.0 | 0.00 | 0.00 | 0.00 | 43 | 1006.6 |
| 20260504150221 | 67 | 169 | 1.0 | 6.0 | 0.00 | 0.00 | 0.00 | 40 | 1006.6 |
| 20260504141217 | 63 | 208 | 2.0 | 7.0 | 0.00 | 0.00 | 0.00 | 46 | 1007.0 |
| 20260504140716 | 63 | 231 | 2.0 | 7.0 | 0.00 | 0.00 | 0.00 | 48 | 1007.0 |
| 20260504140216 | 62 | 204 | 2.0 | 6.0 | 0.00 | 0.00 | 0.00 | 49 | 1007.0 |
| 20260504130715 | 57 | 224 | 2.0 | 6.0 | 0.00 | 0.00 | 0.00 | 59 | 1007.3 |
| 20260504130214 | 56 | 234 | 2.0 | 6.0 | 0.00 | 0.00 | 0.00 | 59 | 1007.3 |
| 20260504120208 | 54 | 252 | 3.0 | 12.0 | 0.00 | 0.00 | 0.00 | 61 | 1007.9 |
| 20260504110104 | 50 | 223 | 1.0 | 3.0 | 0.00 | 0.00 | 0.00 | 68 | 1008.0 |
| 20260504081926 | 51 | 231 | 0.0 | 2.0 | 0.00 | 0.00 | 0.00 | 69 | 1008.2 |
| 20260504081648 | 51 | 260 | 0.0 | 2.0 | 0.00 | 0.00 | 0.00 | 70 | 1008.1 |
| 20260504080922 | 51 | 223 | 0.0 | 3.0 | 0.00 | 0.00 | 0.00 | 70 | 1008.1 |
| 20260504080422 | 50 | 229 | 0.0 | 3.0 | 0.00 | 0.00 | 0.00 | 71 | 1008.1 |
| 20260504070408 | 49 | 259 | 0.0 | 2.0 | 0.00 | 0.00 | 0.00 | 73 | 1008.3 |
| 20260504050713 | 44 | 242 | 0.0 | 1.0 | 0.00 | 0.00 | 0.00 | 77 | 1008.5 |
| 20260504050208 | 44 | 152 | 0.0 | 0.0 | 0.00 | 0.00 | 0.00 | 76 | 1008.5 |
| 20260504045702 | 44 | 152 | 0.0 | 0.0 | 0.00 | 0.00 | 0.00 | 75 | 1008.4 |
| 20260504045156 | 43 | 152 | 0.0 | 0.0 | 0.00 | 0.00 | 0.00 | 75 | 1008.3 |
| 20260504044650 | 43 | 152 | 0.0 | 0.0 | 0.00 | 0.00 | 0.00 | 75 | 1008.4 |
| 20260504044144 | 43 | 152 | 0.0 | 0.0 | 0.00 | 0.00 | 0.00 | 74 | 1008.4 |
| 20260504043638 | 43 | 152 | 0.0 | 0.0 | 0.00 | 0.00 | 0.00 | 74 | 1008.4 |
| 20260504043132 | 43 | 152 | 0.0 | 0.0 | 0.00 | 0.00 | 0.00 | 73 | 1008.4 |
| 20260504042850 | 43 | 152 | 0.0 | 0.0 | 0.00 | 0.00 | 0.00 | 73 | 1008.4 |
| 20260504042120 | 43 | 153 | 0.0 | 0.0 | 0.00 | 0.00 | 0.00 | 72 | 1008.4 |
| 20260504041614 | 43 | 153 | 0.0 | 0.0 | 0.00 | 0.00 | 0.00 | 73 | 1008.5 |
| 20260504040602 | 43 | 153 | 0.0 | 0.0 | 0.00 | 0.00 | 0.00 | 72 | 1008.4 |
| 20260504040057 | 43 | 153 | 0.0 | 0.0 | 0.00 | 0.00 | 0.00 | 71 | 1008.5 |
| 20260504035549 | 43 | 153 | 0.0 | 0.0 | 0.00 | 0.00 | 0.00 | 71 | 1008.4 |
| 20260504035043 | 43 | 153 | 0.0 | 0.0 | 0.00 | 0.00 | 0.00 | 72 | 1008.4 |
| 20260504034537 | 43 | 153 | 0.0 | 0.0 | 0.00 | 0.00 | 0.00 | 72 | 1008.3 |
| 20260504034258 | 42 | 153 | 0.0 | 0.0 | 0.00 | 0.00 | 0.00 | 72 | 1008.2 |
| 20260504033526 | 42 | 153 | 0.0 | 0.0 | 0.00 | 0.00 | 0.00 | 73 | 1008.3 |
| 20260504033019 | 42 | 153 | 0.0 | 0.0 | 0.00 | 0.00 | 0.00 | 73 | 1008.3 |
| 20260504032738 | 43 | 153 | 0.0 | 0.0 | 0.00 | 0.00 | 0.00 | 74 | 1008.1 |
| 20260504032007 | 43 | 153 | 0.0 | 0.0 | 0.00 | 0.00 | 0.00 | 75 | 1008.2 |
| 20260504031502 | 43 | 153 | 0.0 | 0.0 | 0.00 | 0.00 | 0.00 | 74 | 1008.1 |
| 20260504030956 | 43 | 219 | 0.0 | 0.0 | 0.00 | 0.00 | 0.00 | 74 | 1008.0 |
| 20260504030449 | 43 | 219 | 0.0 | 0.0 | 0.00 | 0.00 | 0.00 | 75 | 1008.0 |
| 20260504025943 | 43 | 219 | 0.0 | 0.0 | 0.00 | 0.00 | 0.00 | 75 | 1008.0 |
| 20260504025437 | 43 | 219 | 0.0 | 1.0 | 0.00 | 0.00 | 0.00 | 77 | 1008.0 |
| 20260504024931 | 43 | 219 | 0.0 | 2.0 | 0.00 | 0.00 | 0.00 | 77 | 1008.0 |
| 20260504024427 | 43 | 219 | 0.0 | 2.0 | 0.00 | 0.00 | 0.00 | 77 | 1007.9 |
| 20260504023924 | 43 | 202 | 0.0 | 0.0 | 0.00 | 0.00 | 0.00 | 77 | 1007.9 |
| 20260504023641 | 43 | 201 | 0.0 | 0.0 | 0.00 | 0.00 | 0.00 | 76 | 1007.9 |
| 20260504022924 | 43 | 202 | 0.0 | 0.0 | 0.00 | 0.00 | 0.00 | 75 | 1007.9 |
| 20260504022421 | 43 | 202 | 0.0 | 0.0 | 0.00 | 0.00 | 0.00 | 75 | 1007.9 |
| 20260504022144 | 43 | 202 | 0.0 | 0.0 | 0.00 | 0.00 | 0.00 | 75 | 1007.9 |
| 20260504021419 | 43 | 202 | 0.0 | 0.0 | 0.00 | 0.00 | 0.00 | 76 | 1007.9 |
| 20260504020917 | 43 | 202 | 0.0 | 0.0 | 0.00 | 0.00 | 0.00 | 74 | 1007.9 |
| 20260504020415 | 43 | 202 | 0.0 | 0.0 | 0.00 | 0.00 | 0.00 | 74 | 1007.8 |
| 20260504015914 | 43 | 202 | 0.0 | 0.0 | 0.00 | 0.00 | 0.00 | 73 | 1007.8 |
| 20260504015411 | 44 | 202 | 0.0 | 0.0 | 0.00 | 0.00 | 0.00 | 73 | 1007.7 |
| 20260504014911 | 44 | 202 | 0.0 | 0.0 | 0.00 | 0.00 | 0.00 | 72 | 1007.7 |
| 20260504014414 | 44 | 202 | 0.0 | 0.0 | 0.00 | 0.00 | 0.00 | 70 | 1007.7 |
| 20260504013909 | 44 | 202 | 0.0 | 0.0 | 0.00 | 0.00 | 0.00 | 69 | 1007.7 |
| 20260504013407 | 44 | 202 | 0.0 | 0.0 | 0.00 | 0.00 | 0.00 | 69 | 1007.7 |
| 20260504012906 | 45 | 202 | 0.0 | 0.0 | 0.00 | 0.00 | 0.00 | 68 | 1007.7 |
| 20260504012628 | 45 | 202 | 0.0 | 0.0 | 0.00 | 0.00 | 0.00 | 67 | 1007.6 |
| 20260504012125 | 46 | 202 | 0.0 | 0.0 | 0.00 | 0.00 | 0.00 | 66 | 1007.6 |
| 20260504011400 | 46 | 202 | 0.0 | 0.0 | 0.00 | 0.00 | 0.00 | 66 | 1007.5 |
| 20260504010858 | 46 | 202 | 0.0 | 0.0 | 0.00 | 0.00 | 0.00 | 65 | 1007.5 |
| 20260504010355 | 47 | 202 | 0.0 | 0.0 | 0.00 | 0.00 | 0.00 | 64 | 1007.5 |
| 20260504005854 | 47 | 202 | 0.0 | 0.0 | 0.00 | 0.00 | 0.00 | 60 | 1007.5 |
| 20260504004844 | 48 | 202 | 0.0 | 0.0 | 0.00 | 0.00 | 0.00 | 58 | 1007.5 |
| 20260504004336 | 49 | 202 | 0.0 | 0.0 | 0.00 | 0.00 | 0.00 | 57 | 1007.4 |
| 20260504003831 | 49 | 202 | 0.0 | 0.0 | 0.00 | 0.00 | 0.00 | 56 | 1007.4 |
| 20260504003324 | 50 | 202 | 0.0 | 0.0 | 0.00 | 0.00 | 0.00 | 54 | 1007.3 |
| 20260504002819 | 50 | 202 | 0.0 | 0.0 | 0.00 | 0.00 | 0.00 | 53 | 1007.2 |
| 20260504002314 | 51 | 202 | 0.0 | 0.0 | 0.00 | 0.00 | 0.00 | 51 | 1007.1 |
| 20260504002036 | 52 | 202 | 0.0 | 0.0 | 0.00 | 0.00 | 0.00 | 50 | 1007.1 |
| 20260504001302 | 53 | 202 | 0.0 | 0.0 | 0.00 | 0.00 | 0.00 | 49 | 1007.0 |
| 20260504000754 | 53 | 202 | 0.0 | 0.0 | 0.00 | 0.00 | 0.00 | 47 | 1007.0 |
| 20260504000520 | 54 | 202 | 0.0 | 0.0 | 0.00 | 0.00 | 0.00 | 45 | 1006.9 |
| 20260503235743 | 55 | 202 | 0.0 | 0.0 | 0.00 | 0.00 | 0.00 | 43 | 1006.9 |
| 20260503235236 | 56 | 202 | 0.0 | 0.0 | 0.00 | 0.00 | 0.00 | 42 | 1006.9 |
| 20260503234730 | 57 | 138 | 0.0 | 0.0 | 0.00 | 0.00 | 0.00 | 40 | 1006.8 |
| 20260503234225 | 58 | 138 | 0.0 | 1.0 | 0.00 | 0.00 | 0.00 | 39 | 1006.8 |
| 20260503233719 | 58 | 138 | 0.0 | 1.0 | 0.00 | 0.00 | 0.00 | 37 | 1006.8 |
| 20260503233214 | 59 | 138 | 0.0 | 1.0 | 0.00 | 0.00 | 0.00 | 36 | 1006.7 |
| 20260503232706 | 60 | 202 | 0.0 | 3.0 | 0.00 | 0.00 | 0.00 | 35 | 1006.7 |
| 20260503232201 | 60 | 157 | 0.0 | 3.0 | 0.00 | 0.00 | 0.00 | 33 | 1006.7 |
| 20260503231655 | 61 | 148 | 0.0 | 3.0 | 0.00 | 0.00 | 0.00 | 33 | 1006.6 |
| 20260503231149 | 62 | 243 | 0.0 | 3.0 | 0.00 | 0.00 | 0.00 | 32 | 1006.6 |
| 20260503230644 | 62 | 146 | 0.0 | 4.0 | 0.00 | 0.00 | 0.00 | 33 | 1006.6 |
| 20260503230136 | 63 | 181 | 1.0 | 7.0 | 0.00 | 0.00 | 0.00 | 33 | 1006.7 |
| 20260503225631 | 63 | 219 | 1.0 | 7.0 | 0.00 | 0.00 | 0.00 | 33 | 1006.7 |
| 20260503225125 | 63 | 113 | 0.0 | 3.0 | 0.00 | 0.00 | 0.00 | 33 | 1006.7 |
| 20260503224619 | 63 | 63 | 0.0 | 3.0 | 0.00 | 0.00 | 0.00 | 32 | 1006.7 |
| 20260503224119 | 63 | 262 | 1.0 | 5.0 | 0.00 | 0.00 | 0.00 | 33 | 1006.7 |
| 20260503223619 | 63 | 63 | 2.0 | 8.0 | 0.00 | 0.00 | 0.00 | 32 | 1006.8 |
| 20260503223119 | 63 | 86 | 1.0 | 8.0 | 0.00 | 0.00 | 0.00 | 30 | 1006.7 |
| 20260503222841 | 63 | 262 | 1.0 | 6.0 | 0.00 | 0.00 | 0.00 | 33 | 1006.7 |
| 20260503222115 | 63 | 252 | 2.0 | 9.0 | 0.00 | 0.00 | 0.00 | 31 | 1006.7 |
| 20260503221836 | 63 | 247 | 3.0 | 9.0 | 0.00 | 0.00 | 0.00 | 30 | 1006.7 |
| 20260503221114 | 64 | 221 | 1.0 | 8.0 | 0.00 | 0.00 | 0.00 | 31 | 1006.7 |
| 20260503220614 | 64 | 264 | 1.0 | 8.0 | 0.00 | 0.00 | 0.00 | 32 | 1006.7 |
| 20260503220114 | 63 | 216 | 2.0 | 8.0 | 0.00 | 0.00 | 0.00 | 31 | 1006.8 |
| 20260503215836 | 64 | 118 | 2.0 | 12.0 | 0.00 | 0.00 | 0.00 | 30 | 1006.7 |
| 20260503215111 | 64 | 256 | 2.0 | 12.0 | 0.00 | 0.00 | 0.00 | 30 | 1006.7 |
| 20260503214611 | 64 | 198 | 2.0 | 10.0 | 0.00 | 0.00 | 0.00 | 32 | 1006.8 |
| 20260503214330 | 64 | 238 | 2.0 | 6.0 | 0.00 | 0.00 | 0.00 | 32 | 1006.8 |
| 20260503213609 | 64 | 282 | 2.0 | 10.0 | 0.00 | 0.00 | 0.00 | 31 | 1006.7 |
| 20260503213107 | 64 | 353 | 2.0 | 10.0 | 0.00 | 0.00 | 0.00 | 31 | 1006.7 |
| 20260503212605 | 64 | 215 | 2.0 | 6.0 | 0.00 | 0.00 | 0.00 | 31 | 1006.7 |
| 20260503212105 | 64 | 166 | 2.0 | 8.0 | 0.00 | 0.00 | 0.00 | 34 | 1006.7 |
| 20260503211607 | 64 | 32 | 2.0 | 10.0 | 0.00 | 0.00 | 0.00 | 31 | 1006.6 |
| 20260503211326 | 64 | 300 | 2.0 | 10.0 | 0.00 | 0.00 | 0.00 | 32 | 1006.7 |
| 20260503210559 | 63 | 163 | 2.0 | 10.0 | 0.00 | 0.00 | 0.00 | 32 | 1006.7 |
| 20260503210053 | 63 | 125 | 3.0 | 10.0 | 0.00 | 0.00 | 0.00 | 30 | 1006.7 |
| 20260503205547 | 64 | 19 | 3.0 | 10.0 | 0.00 | 0.00 | 0.00 | 32 | 1006.7 |
| 20260503205306 | 64 | 170 | 2.0 | 8.0 | 0.00 | 0.00 | 0.00 | 32 | 1006.8 |
| 20260503204536 | 64 | 219 | 2.0 | 8.0 | 0.00 | 0.00 | 0.00 | 32 | 1006.8 |
| 20260503204029 | 64 | 93 | 2.0 | 7.0 | 0.00 | 0.00 | 0.00 | 34 | 1006.8 |
| 20260503203523 | 64 | 168 | 2.0 | 8.0 | 0.00 | 0.00 | 0.00 | 34 | 1007.0 |
| 20260503203017 | 63 | 219 | 1.0 | 8.0 | 0.00 | 0.00 | 0.00 | 36 | 1006.9 |
| 20260503202511 | 63 | 131 | 1.0 | 8.0 | 0.00 | 0.00 | 0.00 | 36 | 1007.0 |
| 20260503202006 | 63 | 172 | 2.0 | 8.0 | 0.00 | 0.00 | 0.00 | 35 | 1007.0 |
| 20260503201500 | 62 | 288 | 2.0 | 9.0 | 0.00 | 0.00 | 0.00 | 37 | 1007.2 |
| 20260503200954 | 62 | 21 | 3.0 | 9.0 | 0.00 | 0.00 | 0.00 | 36 | 1007.2 |
| 20260503200448 | 63 | 51 | 3.0 | 11.0 | 0.00 | 0.00 | 0.00 | 39 | 1007.3 |
| 20260503195941 | 63 | 94 | 3.0 | 11.0 | 0.00 | 0.00 | 0.00 | 37 | 1007.5 |
| 20260503195437 | 63 | 67 | 2.0 | 10.0 | 0.00 | 0.00 | 0.00 | 34 | 1007.5 |
| 20260503194928 | 62 | 342 | 2.0 | 10.0 | 0.00 | 0.00 | 0.00 | 38 | 1007.5 |
| 20260503194423 | 62 | 81 | 2.0 | 7.0 | 0.00 | 0.00 | 0.00 | 41 | 1007.7 |
| 20260503194148 | 62 | 45 | 3.0 | 8.0 | 0.00 | 0.00 | 0.00 | 37 | 1007.5 |
| 20260503193411 | 62 | 239 | 2.0 | 8.0 | 0.00 | 0.00 | 0.00 | 37 | 1007.6 |
| 20260503193130 | 62 | 316 | 3.0 | 10.0 | 0.00 | 0.00 | 0.00 | 38 | 1007.7 |
| 20260503192624 | 61 | 50 | 3.0 | 10.0 | 0.00 | 0.00 | 0.00 | 36 | 1007.8 |
| 20260503192114 | 61 | 228 | 2.0 | 9.0 | 0.00 | 0.00 | 0.00 | 36 | 1007.8 |
| 20260503191347 | 61 | 51 | 1.0 | 5.0 | 0.00 | 0.00 | 0.00 | 37 | 1007.9 |
| 20260503190841 | 61 | 155 | 2.0 | 13.0 | 0.00 | 0.00 | 0.00 | 37 | 1007.9 |
| 20260503190336 | 61 | 95 | 3.0 | 13.0 | 0.00 | 0.00 | 0.00 | 37 | 1008.0 |
| 20260503185829 | 60 | 101 | 3.0 | 13.0 | 0.00 | 0.00 | 0.00 | 39 | 1008.1 |
| 20260503185323 | 60 | 201 | 3.0 | 13.0 | 0.00 | 0.00 | 0.00 | 35 | 1008.0 |
| 20260503184817 | 60 | 58 | 3.0 | 13.0 | 0.00 | 0.00 | 0.00 | 37 | 1008.2 |
| 20260503184311 | 60 | 270 | 3.0 | 9.0 | 0.00 | 0.00 | 0.00 | 40 | 1008.2 |
| 20260503183807 | 60 | 282 | 3.0 | 10.0 | 0.00 | 0.00 | 0.00 | 38 | 1008.4 |
| 20260503183259 | 60 | 64 | 3.0 | 10.0 | 0.00 | 0.00 | 0.00 | 39 | 1008.4 |
| 20260503182753 | 60 | 162 | 2.0 | 8.0 | 0.00 | 0.00 | 0.00 | 37 | 1008.4 |
| 20260503182246 | 60 | 345 | 3.0 | 11.0 | 0.00 | 0.00 | 0.00 | 40 | 1008.4 |
| 20260503181741 | 60 | 152 | 3.0 | 11.0 | 0.00 | 0.00 | 0.00 | 40 | 1008.5 |
| 20260503181236 | 60 | 293 | 2.0 | 10.0 | 0.00 | 0.00 | 0.00 | 44 | 1008.4 |
| 20260503180730 | 59 | 62 | 2.0 | 10.0 | 0.00 | 0.00 | 0.00 | 37 | 1008.4 |
| 20260503180231 | 59 | 99 | 2.0 | 11.0 | 0.00 | 0.00 | 0.00 | 40 | 1008.4 |
| 20260503175729 | 58 | 135 | 4.0 | 15.0 | 0.00 | 0.00 | 0.00 | 37 | 1008.4 |
| 20260503175229 | 58 | 203 | 3.0 | 15.0 | 0.00 | 0.00 | 0.00 | 40 | 1008.5 |